When you browse on this site, cookies collect data to enhance your experience and personalize the content and advertising you see.
Visit our Privacy Policy to learn more. By continuing to use the site, you agree to this use of cookies and data.
  • In Latvia
  • List of Countries
  • For 7 days
  • Water Temperature
  • Weather Map
  • Weather Widgets
  • user-avatar
    Login

    Hourly Weather Iecava

    Today, 15 December, Sunday

    Time Temperature Precipitation Wind Pressure Humidity
    00:00 0°C° 0.2 mm 4 mps 744 mmHg 96%
    01:00 0°C° 0.2 mm 4 mps 744 mmHg 96%
    02:00 +1°C° 0.2 mm 4 mps 744 mmHg 96%
    03:00 +2°C° 0.5 mm 3 mps 744 mmHg 96%
    04:00 +2°C° 0.5 mm 3 mps 744 mmHg 97%
    05:00 +2°C° 0.5 mm 3 mps 743 mmHg 97%
    06:00 +2°C° 0.6 mm 3 mps 743 mmHg 97%
    07:00 +3°C° 0.6 mm 2 mps 744 mmHg 97%
    08:00 +3°C° 0.6 mm 2 mps 744 mmHg 98%
    09:00 +2°C° 0.2 mm 3 mps 744 mmHg 97%
    10:00 +2°C° 0.2 mm 3 mps 744 mmHg 97%
    11:00 +2°C° 0.2 mm 3 mps 745 mmHg 96%
    12:00 +2°C° 0.1 mm 3 mps 745 mmHg 93%
    13:00 +3°C° 0.1 mm 3 mps 746 mmHg 90%
    14:00 +3°C° 0.1 mm 4 mps 746 mmHg 86%
    15:00 +3°C° 0 mm 4 mps 746 mmHg 86%
    16:00 +2°C° 0 mm 5 mps 747 mmHg 85%
    17:00 +2°C° 0 mm 5 mps 747 mmHg 85%
    18:00 +1°C° 0 mm 5 mps 747 mmHg 86%
    19:00 +1°C° 0 mm 5 mps 747 mmHg 87%
    20:00 0°C° 0 mm 4 mps 747 mmHg 88%
    21:00 0°C° 0.3 mm 5 mps 747 mmHg 90%
    22:00 +1°C° 0.3 mm 5 mps 747 mmHg 91%
    23:00 +1°C° 0.3 mm 6 mps 747 mmHg 93%

    Tomorrow, 16 December, Monday

    Time Temperature Precipitation Wind Pressure Humidity
    00:00 +1°C° 0.2 mm 6 mps 746 mmHg 89%
    01:00 +1°C° 0.2 mm 6 mps 746 mmHg 85%
    02:00 +2°C° 0.2 mm 6 mps 746 mmHg 82%
    03:00 +2°C° 0.4 mm 7 mps 746 mmHg 83%
    04:00 +1°C° 0.4 mm 8 mps 745 mmHg 85%
    05:00 +1°C° 0.4 mm 9 mps 745 mmHg 87%
    06:00 +1°C° 0.2 mm 9 mps 746 mmHg 86%
    07:00 +1°C° 0.2 mm 9 mps 746 mmHg 84%
    08:00 +1°C° 0.2 mm 10 mps 747 mmHg 83%
    09:00 +1°C° 0.1 mm 9 mps 748 mmHg 80%
    10:00 +1°C° 0.1 mm 8 mps 749 mmHg 77%
    11:00 +3°C° 0.1 mm 7 mps 751 mmHg 74%
    12:00 +3°C° 0 mm 6 mps 752 mmHg 75%
    13:00 +3°C° 0 mm 5 mps 753 mmHg 76%
    14:00 +4°C° 0 mm 4 mps 754 mmHg 78%
    15:00 +3°C° 0 mm 4 mps 754 mmHg 81%
    16:00 +3°C° 0 mm 3 mps 755 mmHg 84%
    17:00 +2°C° 0 mm 3 mps 756 mmHg 88%
    18:00 +2°C° 0 mm 3 mps 756 mmHg 89%
    19:00 +1°C° 0 mm 4 mps 756 mmHg 91%
    20:00 +1°C° 0 mm 4 mps 756 mmHg 92%
    21:00 0°C° 0 mm 4 mps 756 mmHg 92%
    22:00 0°C° 0 mm 4 mps 756 mmHg 92%
    23:00 0°C° 0 mm 4 mps 756 mmHg 92%

    Day after tomorrow, 17 December, Tuesday

    Time Temperature Precipitation Wind Pressure Humidity
    00:00 0°C° 0.1 mm 4 mps 755 mmHg 90%
    01:00 +1°C° 0.1 mm 4 mps 755 mmHg 88%
    02:00 +1°C° 0.1 mm 5 mps 755 mmHg 86%
    03:00 +1°C° 0.3 mm 4 mps 755 mmHg 88%
    04:00 +1°C° 0.3 mm 4 mps 754 mmHg 91%
    05:00 +2°C° 0.3 mm 3 mps 754 mmHg 93%
    06:00 +2°C° 0.1 mm 3 mps 754 mmHg 94%
    07:00 +3°C° 0.1 mm 3 mps 754 mmHg 95%
    08:00 +3°C° 0.1 mm 3 mps 754 mmHg 96%
    09:00 +3°C° 0 mm 3 mps 754 mmHg 96%
    10:00 +4°C° 0 mm 2 mps 754 mmHg 96%
    11:00 +4°C° 0 mm 2 mps 755 mmHg 96%
    12:00 +5°C° 0.1 mm 2 mps 755 mmHg 96%
    13:00 +5°C° 0.1 mm 2 mps 755 mmHg 96%
    14:00 +5°C° 0.1 mm 2 mps 754 mmHg 97%
    15:00 +5°C° 0.2 mm 2 mps 755 mmHg 97%
    16:00 +6°C° 0.2 mm 1 mps 755 mmHg 97%
    17:00 +6°C° 0.2 mm 1 mps 755 mmHg 97%
    18:00 +5°C° 0 mm 1 mps 755 mmHg 97%
    19:00 +5°C° 0 mm 1 mps 755 mmHg 97%
    20:00 +5°C° 0 mm 1 mps 756 mmHg 96%
    21:00 +4°C° 0 mm 2 mps 755 mmHg 96%
    22:00 +4°C° 0 mm 2 mps 755 mmHg 96%
    23:00 +4°C° 0 mm 2 mps 755 mmHg 96%

    18 December, Wednesday

    Time Temperature Precipitation Wind Pressure Humidity
    00:00 +4°C° 0.1 mm 2 mps 755 mmHg 96%
    01:00 +4°C° 0.1 mm 2 mps 755 mmHg 95%
    02:00 +3°C° 0.1 mm 3 mps 755 mmHg 95%
    03:00 +3°C° 0 mm 3 mps 754 mmHg 94%
    04:00 +3°C° 0 mm 3 mps 754 mmHg 94%
    05:00 +3°C° 0 mm 3 mps 754 mmHg 93%
    06:00 +3°C° 0 mm 3 mps 754 mmHg 93%
    07:00 +3°C° 0 mm 3 mps 753 mmHg 92%
    08:00 +3°C° 0 mm 3 mps 753 mmHg 92%
    09:00 +4°C° 0 mm 4 mps 753 mmHg 91%
    10:00 +4°C° 0 mm 4 mps 753 mmHg 90%
    11:00 +5°C° 0 mm 4 mps 753 mmHg 89%
    12:00 +5°C° 0 mm 4 mps 753 mmHg 88%
    13:00 +6°C° 0 mm 4 mps 752 mmHg 87%
    14:00 +6°C° 0 mm 5 mps 752 mmHg 86%
    15:00 +6°C° 0 mm 5 mps 752 mmHg 85%
    16:00 +6°C° 0 mm 5 mps 752 mmHg 85%
    17:00 +5°C° 0 mm 6 mps 752 mmHg 84%
    18:00 +5°C° 0 mm 6 mps 751 mmHg 83%
    19:00 +7°C° 0 mm 6 mps 751 mmHg 82%
    20:00 +7°C° 0 mm 6 mps 751 mmHg 81%
    21:00 +7°C° 0 mm 6 mps 752 mmHg 81%
    22:00 +5°C° 0 mm 6 mps 752 mmHg 81%
    23:00 +6°C° 0 mm 5 mps 753 mmHg 81%

    19 December, Thursday

    Time Temperature Precipitation Wind Pressure Humidity
    00:00 +6°C° 0 mm 5 mps 754 mmHg 81%
    01:00 +5°C° 0 mm 4 mps 754 mmHg 81%
    02:00 +5°C° 0 mm 4 mps 755 mmHg 80%
    03:00 +4°C° 0 mm 3 mps 756 mmHg 82%
    04:00 +3°C° 0 mm 3 mps 756 mmHg 84%
    05:00 +3°C° 0 mm 2 mps 756 mmHg 86%
    06:00 +3°C° 0 mm 2 mps 757 mmHg 88%
    07:00 +2°C° 0 mm 2 mps 757 mmHg 90%
    08:00 +2°C° 0 mm 2 mps 757 mmHg 92%
    09:00 +2°C° 0 mm 2 mps 758 mmHg 91%
    10:00 +2°C° 0 mm 2 mps 758 mmHg 90%
    11:00 +2°C° 0 mm 2 mps 758 mmHg 89%
    12:00 +2°C° 0 mm 2 mps 758 mmHg 88%
    13:00 +2°C° 0 mm 2 mps 758 mmHg 87%
    14:00 +3°C° 0 mm 2 mps 758 mmHg 86%
    15:00 +2°C° 0 mm 2 mps 759 mmHg 86%
    16:00 +2°C° 0 mm 2 mps 759 mmHg 85%
    17:00 +3°C° 0 mm 1 mps 759 mmHg 85%
    18:00 +3°C° 0 mm 1 mps 759 mmHg 86%
    19:00 +2°C° 0 mm 1 mps 760 mmHg 88%
    20:00 +2°C° 0 mm 1 mps 760 mmHg 90%
    21:00 +2°C° 0 mm 1 mps 760 mmHg 91%
    22:00 +1°C° 0 mm 1 mps 760 mmHg 92%
    23:00 +1°C° 0 mm 1 mps 760 mmHg 93%

    20 December, Friday

    Time Temperature Precipitation Wind Pressure Humidity
    00:00 +1°C° 0 mm 1 mps 760 mmHg 93%
    01:00 0°C° 0 mm 0 mps 760 mmHg 93%
    02:00 0°C° 0 mm 0 mps 760 mmHg 93%
    03:00 0°C° 0 mm 0 mps 760 mmHg 93%
    04:00 0°C° 0 mm 0 mps 760 mmHg 92%
    05:00 -1°C° 0 mm 0 mps 760 mmHg 92%
    06:00 -1°C° 0 mm 0 mps 760 mmHg 92%
    07:00 0°C° 0 mm 1 mps 760 mmHg 92%
    08:00 0°C° 0 mm 1 mps 760 mmHg 92%
    09:00 +1°C° 0 mm 1 mps 761 mmHg 90%
    10:00 +1°C° 0 mm 1 mps 761 mmHg 88%
    11:00 +1°C° 0 mm 1 mps 761 mmHg 86%
    12:00 +1°C° 0 mm 1 mps 760 mmHg 84%
    13:00 +1°C° 0 mm 2 mps 760 mmHg 82%
    14:00 +1°C° 0 mm 2 mps 760 mmHg 80%
    15:00 -1°C° 0 mm 2 mps 760 mmHg 82%
    16:00 -1°C° 0 mm 2 mps 760 mmHg 84%
    17:00 -2°C° 0 mm 2 mps 759 mmHg 86%
    18:00 -2°C° 0 mm 2 mps 759 mmHg 85%
    19:00 -2°C° 0 mm 3 mps 759 mmHg 83%
    20:00 -2°C° 0 mm 3 mps 759 mmHg 82%
    21:00 -2°C° 0 mm 3 mps 759 mmHg 81%
    22:00 -2°C° 0 mm 3 mps 759 mmHg 81%
    23:00 -2°C° 0 mm 3 mps 759 mmHg 80%
    Show more